Location: Dennehotso
(36.8461°N, 109.8435°W)
Time: 13:56:12
(UTC+00:00)

Hubble Space Telescope - Visible Passes

Search period start: 28 February 2021 00:00
Search period end: 10 March 2021 00:00
Orbit: 536 x 539 km, 28.5° (Epoch: 28 February)

Date Brightness Start Highest point End Pass type
(mag) Time Alt. Az. Time Alt. Az. Time Alt. Az.
04 Mar 3.1 03:05:46 10° SSW 03:06:47 13° S 03:06:47 13° S visible
05 Mar 2.7 02:54:29 10° SSW 02:56:44 17° S 02:56:44 17° S visible
06 Mar 2.4 02:43:18 10° SW 02:46:19 20° SSE 02:46:39 20° SSE visible
07 Mar 2.4 02:32:11 10° SW 02:35:22 22° S 02:36:32 19° SSE visible
08 Mar 2.3 02:21:08 10° SW 02:24:25 23° S 02:26:22 17° SE visible
09 Mar 2.3 02:10:07 10° SW 02:13:28 24° S 02:16:12 13° SE visible
09 Mar 3.5 03:50:55 10° WSW 03:51:31 13° SW 03:51:31 13° SW visible
